Location: Dos Palmas
(32.4468°N, 116.8732°W)
Time: 15:58:04
(UTC+00:00)

ASTRO E2 - Pass Details

Date: 20 June 2021
Orbit: 507 x 513 km, 31.4° (Epoch: 26 July)

Event Time Altitude Azimuth Distance (km) Brightness Sun altitude
Rises 03:18:56 0° 241° (WSW) 2,597 6.7 -4.7°
Reaches altitude 10° 03:21:14 10° 234° (SW) 1,715 5.7 -5.1°
Maximum altitude 03:24:58 41° 163° (SSE) 740 3.2 -5.8°
Drops below altitude 10° 03:28:43 10° 92° (E) 1,722 4.8 -6.5°
Enters shadow 03:30:09 - 87° (E) 2,269 5.5 -6.7°
